Location: Utrecht
(52.0907°N, 5.1214°E)
Time: 03:25:32
(UTC+02:00)

VELOX 1 - Visible Passes

Search period start: 30 June 2022 00:00
Search period end: 10 July 2022 00:00
Orbit: 625 x 638 km, 98.4° (Epoch: 24 June)

Date Brightness Start Highest point End Pass type
(mag) Time Alt. Az. Time Alt. Az. Time Alt. Az.
30 Jun ? 04:30:36 10° E 04:33:34 18° ENE 04:36:32 10° NNE visible
03 Jul ? 04:00:02 10° NE 04:00:25 10° NE 04:00:48 10° NE visible
04 Jul ? 04:18:38 10° E 04:21:00 14° NE 04:23:23 10° NNE visible
08 Jul ? 04:06:57 10° ENE 04:08:24 11° NE 04:09:51 10° NNE visible
09 Jul ? 04:26:16 10° E 04:28:58 16° NE 04:31:42 10° NNE visible
